GFSNIL_con_3kmhel_048.txt.gz
Helicity
234 282 332 413 481 566 568 608 290 545 288 239 144 140 137 128 134 158 153 156 162 159
383 469 462 501 536 591 446 484 323 394 297 186 102 112 122 123 142 131 122 140 157 162
483 489 498 537 505 548 405 391 481 346 169 163 108 113 131 121 118 121 141 142 148 156
486 538 565 552 610 334 274 428 344 132 232 134 106 124 131 117 113 109 128 145 160 161
660 574 551 529 400 227 315 420 167 231 208 124 115 118 111 107 113 107 129 160 194 178
550 603 353 340 376 371 431 250 278 273 149 122 116 114 109 110 110 140 173 190 182 159
478 334 382 431 437 426 393 410 244 156 123 113 112 117 130 146 152 167 201 199 190 156
398 512 516 578 541 457 443 294 164 149 145 161 124 136 149 179 189 176 176 196 176 151
521 627 631 555 408 471 421 319 178 175 137 121 127 138 157 196 185 166 170 164 161 143
599 586 593 587 820 738 429 175 137 113 106 110 127 133 144 157 187 177 168 167 160 140
762 885 1012 992 504 167 80 73 65 68 85 116 131 144 137 152 205 190 158 164 160 137
906 883 585 250 72 74 69 56 59 82 104 126 138 140 141 204 211 197 172 165 140 125
516 347 108 91 98 59 89 92 99 106 114 121 143 155 159 186 231 212 178 154 130 115
107 140 127 118 128 108 95 108 121 124 125 139 181 181 148 143 229 202 191 178 150 140

GFSNIL_con_3kmhel_054.txt.gz
Helicity
331 258 168 170 208 243 281 350 392 491 586 480 422 190 335 182 303 282 202 246 193 193
266 198 151 174 251 324 415 484 627 603 706 379 216 184 264 214 315 243 209 182 183 167
197 171 185 256 325 415 515 652 669 663 423 361 190 353 252 238 281 210 180 180 162 136
203 206 277 381 427 466 589 589 536 452 193 310 344 319 243 196 151 154 173 165 155 117
267 325 407 512 436 564 548 437 350 355 317 332 371 377 134 134 158 202 192 148 141 112
368 395 425 418 505 467 487 382 304 240 382 296 245 154 102 159 195 163 145 131 147 143
402 440 458 437 436 405 463 456 292 421 193 199 79 128 173 165 139 144 147 155 164 174
447 361 392 441 433 567 416 272 286 378 252 66 160 223 174 147 146 155 155 164 182 193
404 422 405 452 563 355 322 483 349 164 123 191 214 132 112 135 169 171 185 186 186 199
430 421 509 535 398 461 515 429 270 152 173 151 141 118 104 114 179 209 209 206 204 218
489 540 545 516 558 537 281 210 140 151 150 144 125 113 115 116 195 218 208 209 208 229
466 480 484 447 466 137 118 148 147 138 146 156 143 111 114 151 209 227 213 209 223 224
473 500 183 84 118 138 129 133 139 150 149 147 166 136 146 171 252 252 235 228 215 162
111 107 97 127 132 132 129 141 142 150 163 176 183 179 156 161 266 264 259 268 241 223

GFSNIL_con_3kmhel_057.txt.gz
Helicity
187 249 221 221 259 217 232 205 252 304 358 498 496 593 383 229 94 207 295 118 137 150
258 230 233 242 200 126 149 240 322 371 412 516 529 322 301 280 260 276 214 82 174 176
250 218 238 239 161 170 236 286 325 420 501 500 382 275 288 250 289 212 108 162 194 140
189 183 212 195 201 229 307 282 453 500 414 390 257 229 261 230 181 98 147 186 142 95
176 191 186 223 322 380 464 334 394 439 409 402 252 394 162 131 102 145 163 118 117 96
181 226 298 360 354 395 453 351 370 436 347 491 204 93 71 87 150 134 110 100 108 102
217 261 272 280 197 232 253 424 480 443 304 243 166 150 64 123 112 100 111 103 117 128
184 179 210 239 220 245 360 372 449 244 217 271 155 99 101 107 101 109 119 130 143 143
232 230 252 300 387 301 437 380 343 207 209 123 121 74 44 65 102 127 157 164 167 163
259 316 339 360 306 415 401 440 140 104 123 141 80 70 83 87 134 168 178 178 183 186
311 325 336 414 439 385 294 117 90 124 118 87 76 108 92 105 146 191 184 186 177 185
362 366 348 366 221 115 99 116 131 113 92 111 103 104 111 142 181 199 190 194 187 203
233 190 116 91 102 107 122 120 109 101 99 114 113 114 126 153 204 224 230 197 200 222
167 141 135 126 122 113 111 106 107 113 114 120 129 137 149 165 215 241 239 251 240 233

GFSNIL_con_3kmhel_060.txt.gz
Helicity
140 109 128 174 158 185 262 294 302 243 176 199 249 351 333 448 233 190 158 146 172 152
171 141 215 132 207 187 249 279 185 175 194 367 317 308 403 333 271 167 193 169 158 148
162 165 226 242 153 191 229 202 215 249 306 279 402 434 376 414 225 173 187 157 119 132
131 114 155 173 172 181 282 242 200 294 297 326 436 453 323 287 220 119 103 83 108 120
134 117 128 159 175 247 347 379 322 389 211 295 485 434 296 250 121 66 41 94 145 107
153 178 186 246 331 337 434 410 396 404 316 500 342 256 200 114 118 71 98 129 119 101
183 196 205 206 222 250 204 234 237 360 360 311 313 157 50 90 29 81 120 107 98 96
222 228 238 233 236 263 263 196 214 286 336 296 225 63 36 52 90 92 105 95 98 104
272 272 243 224 217 242 239 247 236 289 217 159 95 79 100 82 83 74 84 105 102 122
222 229 237 228 270 279 266 171 195 153 106 68 87 104 89 88 82 102 110 128 144 155
203 216 214 244 221 155 125 126 86 82 86 81 84 125 103 108 119 137 142 159 168 170
169 172 166 160 139 113 96 73 66 76 95 93 86 124 108 127 156 176 173 174 179 185
134 109 134 126 86 82 91 103 98 103 103 109 100 112 126 164 203 210 230 222 227 239
136 131 127 126 119 109 109 110 123 112 112 115 135 152 215 211 247 265 290 307 294 273

GFSNIL_con_3kmhel_063.txt.gz
Helicity
58 92 105 185 320 193 270 157 165 200 279 330 307 247 272 355 351 277 358 347 152 194
117 142 156 210 186 256 209 296 334 320 339 306 152 328 411 383 304 347 328 296 200 172
187 188 192 251 217 275 246 212 269 278 333 391 433 432 285 294 458 398 275 203 176 109
240 220 183 188 245 260 176 187 242 363 527 415 426 293 204 268 368 307 198 157 111 52
185 185 166 162 171 217 283 308 398 480 420 273 353 311 367 359 211 161 119 72 21 40
192 155 221 271 283 296 342 383 390 351 342 325 356 255 271 271 214 181 72 -0 39 108
245 248 253 253 263 276 277 280 258 292 329 246 249 254 222 226 155 58 20 60 101 115
286 275 277 279 268 268 264 316 298 260 223 243 213 192 151 125 82 83 91 108 94 105
278 298 280 272 238 238 249 246 213 185 187 188 187 130 81 93 123 107 93 81 92 103
205 228 224 222 222 230 221 207 186 189 170 132 96 89 88 107 98 96 98 99 114 127
209 211 213 204 219 211 198 195 165 135 106 82 89 79 84 117 104 105 100 107 122 155
211 193 176 183 183 181 157 125 101 89 92 106 114 143 126 130 129 138 145 155 162 180
179 168 160 154 142 105 95 121 126 121 119 137 99 232 216 185 178 186 197 202 206 209
172 121 124 150 148 141 147 145 139 121 127 125 163 196 228 217 184 206 208 189 191 203

GFSNIL_con_3kmhel_066.txt.gz
Helicity
99 88 121 86 253 443 338 280 269 310 260 176 327 414 444 497 473 468 330 306 290 252
176 152 93 157 298 360 339 292 297 252 314 311 392 385 505 495 499 410 282 258 255 245
208 228 246 264 367 273 366 437 377 419 423 457 440 450 536 490 384 276 228 240 185 196
225 302 319 318 316 315 354 355 355 330 346 348 410 416 414 351 398 357 218 253 217 155
304 356 337 324 290 313 334 320 338 322 357 409 341 370 321 326 286 222 186 167 153 123
377 344 321 312 277 297 327 362 380 402 373 332 392 377 257 244 225 206 146 160 147 97
492 343 293 307 319 310 306 343 365 358 380 367 325 246 217 200 163 153 149 128 109 107
338 327 288 284 309 300 319 339 322 320 316 282 239 232 180 196 184 162 130 125 106 83
327 322 292 332 347 323 309 305 310 298 287 265 221 184 169 170 166 142 125 102 82 94
266 279 238 240 254 264 248 247 258 259 237 202 189 158 124 126 130 108 98 97 107 109
202 206 195 202 219 232 226 230 229 210 173 152 143 131 132 120 95 96 108 114 120 142
209 211 242 256 214 207 225 202 173 155 143 147 290 265 192 134 175 180 167 155 171 182
249 241 216 185 177 168 155 143 151 191 232 206 241 244 226 181 168 176 173 158 136 131
230 189 150 126 125 143 225 282 222 217 227 229 220 243 212 201 152 155 138 135 134 135

GFSNIL_con_3kmhel_072.txt.gz
Helicity
52 30 2 27 57 75 124 147 181 210 262 277 232 255 294 319 296 305 317 340 345 337
49 48 57 112 164 232 240 230 252 257 297 324 295 269 313 316 315 305 305 308 302 308
133 130 138 169 200 224 315 333 349 277 254 255 301 375 373 333 323 306 287 264 263 251
167 175 234 283 306 368 322 265 159 147 257 325 366 383 350 328 315 266 311 226 242 250
192 169 337 369 391 332 209 226 93 265 381 385 335 339 318 363 314 295 275 287 238 230
380 364 397 405 267 234 256 96 221 293 310 314 313 341 336 314 302 269 280 267 208 224
342 304 309 400 467 386 346 357 349 318 314 311 335 342 318 271 339 305 268 279 200 219
271 245 283 366 430 411 401 367 362 352 367 357 343 326 342 305 248 275 278 264 241 191
392 397 362 358 365 376 367 372 379 398 406 383 325 325 342 344 345 324 280 280 229 229
435 447 392 363 360 326 352 374 390 363 341 339 344 319 321 324 328 307 268 244 255 271
406 388 360 335 314 330 334 307 324 341 345 354 323 312 294 301 290 295 296 275 246 221
366 352 313 294 290 304 336 349 342 342 370 362 295 249 282 300 296 290 259 232 235 216
286 262 262 272 289 283 288 326 356 376 334 325 376 380 337 285 259 290 269 252 237 250
239 243 266 276 251 280 333 356 350 375 390 427 390 367 337 298 294 254 245 240 223 192

GFSNIL_con_3kmhel_075.txt.gz
Helicity
-46 -45 -49 -43 1 12 35 37 63 132 142 173 178 224 241 220 200 238 260 262 274 262
18 25 7 17 13 58 64 63 107 158 159 181 249 266 280 192 186 243 272 271 270 268
80 73 54 76 75 71 93 113 128 156 194 217 196 241 234 254 292 307 335 298 255 222
101 113 116 107 148 163 194 180 164 168 134 135 173 141 187 273 333 326 299 291 273 224
107 231 202 226 273 258 423 222 140 150 187 85 61 116 184 279 302 303 291 303 329 250
173 202 287 339 278 187 486 144 119 164 211 163 155 225 305 355 340 307 308 299 270 302
191 232 402 410 327 289 281 114 155 188 212 216 230 291 351 328 346 345 323 263 277 283
340 261 320 320 286 280 311 342 373 369 305 298 298 323 333 327 330 352 375 395 314 356
383 288 263 298 345 379 435 453 414 348 297 310 313 310 333 367 391 391 317 379 407 378
370 304 305 340 342 322 326 334 330 324 349 366 354 335 342 396 410 423 418 423 383 377
360 344 332 336 312 303 314 312 312 345 350 348 335 339 366 420 432 438 442 414 361 321
259 302 339 343 334 316 321 323 327 329 356 359 347 374 399 410 404 392 360 317 278 249
292 303 299 281 273 274 289 331 375 415 414 411 415 374 366 357 348 369 348 292 262 277
255 257 253 268 271 312 383 432 467 491 473 471 446 438 395 349 332 319 313 295 269 232

GFSNIL_con_3kmhel_078.txt.gz
Helicity
-111 -129 -156 -160 -129 -128 -87 -54 22 48 109 120 159 184 190 194 203 251 209 163 199 230
-86 -107 -118 -120 -123 -125 -132 -76 11 65 62 104 121 155 152 173 194 237 168 193 173 228
3 -43 -65 -77 -101 -84 -56 -13 43 71 67 78 114 121 129 120 150 165 215 247 272 279
54 13 17 34 20 15 44 81 99 145 207 175 138 181 297 182 150 174 198 218 257 325
117 111 146 149 52 81 79 153 212 223 169 201 276 283 238 139 212 95 173 214 315 290
73 -32 8 140 175 106 143 170 287 160 257 106 155 202 151 123 103 137 198 317 320 319
243 -0 -37 12 170 267 266 238 212 218 231 208 129 151 177 170 180 232 285 298 274 266
303 214 146 166 188 203 245 247 220 216 215 229 184 183 205 197 264 290 299 348 328 365
278 298 267 255 250 214 232 266 264 255 253 214 221 173 212 269 288 318 307 401 520 516
324 301 277 231 204 222 257 303 310 287 274 261 238 237 281 337 358 392 457 425 373 488
284 269 245 223 222 254 288 261 238 232 248 268 279 310 401 437 451 437 434 408 370 325
206 203 216 235 249 280 287 273 256 245 256 306 314 336 386 422 429 452 430 395 372 339
217 220 232 266 272 284 305 346 357 393 368 378 360 344 346 346 362 387 361 356 335 315
253 260 263 289 288 319 343 358 394 436 460 460 415 403 371 348 331 320 347 347 333 289

GFSNIL_con_3kmhel_084.txt.gz
Helicity
51 41 22 -17 -8 -12 -38 -157 -184 -181 -131 -80 -27 4 30 34 32 62 79 80 107 128
69 56 34 32 55 -20 -55 -82 -134 -96 -78 -50 -11 16 47 57 52 75 79 90 102 135
67 52 27 22 34 22 -6 -49 -89 -88 -49 -31 15 39 49 62 72 103 123 141 143 159
26 46 51 44 33 31 3 -16 -23 -35 -13 12 36 65 94 100 103 121 119 173 170 149
32 34 42 59 82 93 83 70 51 33 14 12 24 61 88 104 147 131 165 193 249 196
45 40 32 27 41 41 62 73 47 58 66 72 71 71 60 74 134 187 191 199 180 117
72 52 39 21 3 18 40 -6 46 60 30 25 21 20 49 79 114 79 126 143 152 186
85 67 66 58 80 104 99 46 17 28 29 31 30 36 51 60 75 60 114 202 248 259
71 64 43 48 93 70 40 26 35 57 45 11 33 90 124 135 152 237 313 326 355 365
42 36 46 45 52 60 31 40 24 5 28 63 140 167 199 259 360 378 380 387 398 419
69 60 74 90 83 120 86 72 82 118 168 201 209 225 303 409 420 452 466 447 419 417
113 130 173 199 222 207 194 199 203 203 229 251 280 331 330 371 398 433 452 440 422 345
231 240 236 252 290 316 336 335 327 334 315 333 356 368 359 335 336 379 369 360 339 317
304 330 356 387 363 363 379 393 397 444 463 474 425 391 350 332 312 281 287 295 293 280

GFSNIL_con_3kmhel_087.txt.gz
Helicity
92 122 142 174 115 50 29 8 -55 -65 -78 -51 -87 -90 -51 -18 -13 14 59 72 106 111
93 81 93 129 125 147 118 79 1 -43 -74 -94 -87 -67 -35 -18 16 73 89 107 113 121
88 88 83 66 95 142 136 150 29 -27 -77 -76 -51 -11 -39 15 48 91 107 130 144 134
51 63 62 73 71 69 66 86 68 19 -40 -75 -32 -2 2 48 63 96 115 136 151 158
70 55 41 45 57 56 38 29 42 3 -11 -29 -8 38 57 85 115 125 136 148 149 155
90 88 88 66 86 89 76 76 73 36 33 50 51 79 99 104 107 106 103 112 137 157
96 88 76 66 66 79 79 61 58 51 54 38 25 36 45 68 104 93 92 156 241 223
110 79 66 74 100 105 116 84 63 97 72 31 64 90 100 102 116 140 194 198 251 278
103 79 97 123 113 134 149 131 123 117 114 89 126 126 103 112 120 169 248 371 441 429
104 94 88 95 115 154 190 182 178 160 138 115 123 227 218 221 259 308 375 395 397 390
78 79 80 94 116 153 175 192 216 254 289 288 262 222 294 337 367 423 418 405 395 395
84 89 100 129 157 167 359 594 501 378 320 294 313 320 340 374 392 420 427 422 421 396
113 119 131 197 502 634 612 587 524 492 435 394 386 343 301 316 354 403 416 441 426 391
226 291 483 517 481 538 580 600 586 570 509 465 398 368 352 335 346 356 379 371 345 284

GFSNIL_con_3kmhel_093.txt.gz
Helicity
149 102 130 125 127 100 132 133 8 63 37 -56 -87 16 79 89 33 65 111 11 -39 -11
194 141 128 86 95 79 112 117 64 -2 -9 1 -13 11 101 25 -23 -13 -8 13 -5 10
202 166 135 112 104 77 93 117 67 5 -73 -92 -67 42 110 7 -11 -1 94 27 21 -40
194 179 149 130 119 89 75 100 71 34 -15 -42 -40 -34 -34 -62 36 10 -51 43 71 0
187 200 195 173 133 108 62 45 11 -36 -53 -46 -55 -48 -26 -22 2 -7 -27 -5 105 61
181 157 172 149 127 116 95 61 41 -19 -62 -71 -52 -41 12 51 45 19 41 49 109 105
158 204 162 119 125 117 101 107 90 65 2 -5 3 44 57 59 77 96 95 118 146 151
134 106 128 149 120 124 119 102 103 84 67 46 57 66 109 95 123 126 123 161 207 280
167 145 148 142 171 182 153 139 100 101 119 116 102 74 105 132 159 205 189 261 329 352
200 175 155 173 178 183 202 187 171 157 173 157 126 119 145 182 252 259 293 325 364 385
241 211 184 178 159 162 176 182 201 201 194 236 316 262 277 352 440 469 456 433 436 421
258 278 230 197 181 189 191 182 222 277 364 399 405 360 384 510 547 571 587 568 519 493
295 281 286 268 256 319 373 474 491 521 477 498 506 466 486 527 644 659 600 627 688 755
292 248 304 437 468 518 570 622 602 628 642 660 633 596 492 466 566 632 723 756 681 695

GFSNIL_con_3kmhel_099.txt.gz
Helicity
207 163 109 86 123 125 158 247 266 359 407 477 573 630 481 439 241 257 198 86 145 148
186 160 133 79 65 107 158 188 202 315 494 662 612 557 532 293 241 291 164 84 107 72
151 152 140 108 39 84 89 94 147 192 174 280 314 168 212 229 149 211 133 29 46 92
137 163 186 133 93 71 104 101 106 150 238 340 348 297 239 153 120 85 -31 57 75 59
134 166 163 144 111 129 112 110 108 130 145 152 242 264 170 129 106 -32 -80 -39 23 33
145 158 156 142 138 103 113 128 120 120 99 80 60 65 80 39 -91 -201 -166 -49 65 45
163 154 134 159 145 126 103 126 134 161 122 107 64 35 -16 -49 -106 -107 -65 21 75 41
166 164 133 133 167 159 134 106 125 118 122 124 110 93 54 30 39 57 61 67 55 58
136 163 158 135 128 150 159 145 135 122 86 90 95 70 83 78 81 113 115 84 120 199
150 167 165 149 135 134 160 150 140 132 118 99 87 62 53 57 60 68 83 99 151 242
158 164 160 146 157 152 142 155 148 135 133 101 83 106 119 118 130 139 147 160 195 226
153 172 171 187 194 180 180 168 154 160 155 131 115 121 116 148 177 266 268 269 275 269
192 96 178 174 213 233 229 191 205 196 241 178 125 197 159 214 340 392 416 415 425 419
199 241 254 167 218 200 201 295 376 437 445 426 391 402 374 344 417 507 583 551 581 583

GFSNIL_con_3kmhel_105.txt.gz
Helicity
162 171 162 154 138 109 96 107 120 152 187 204 284 339 331 356 315 207 165 76 211 268
164 158 139 123 110 64 50 66 120 184 220 218 241 387 342 338 450 324 391 186 248 266
142 128 112 111 89 67 65 46 68 135 180 220 272 332 390 514 395 651 297 330 283 302
119 99 94 79 69 70 75 28 65 114 147 146 160 254 376 423 587 545 445 509 383 178
93 76 75 49 52 76 76 17 60 97 101 109 127 206 297 346 336 397 504 578 221 165
71 64 51 23 36 66 94 60 39 95 71 74 107 155 217 274 268 280 398 228 115 169
70 49 52 23 24 52 82 98 82 102 98 99 126 172 201 193 192 171 109 92 135 110
61 53 47 29 23 42 78 95 87 105 123 153 157 163 237 164 152 202 207 178 161 141
67 54 39 32 23 37 45 58 103 119 127 120 129 176 178 206 221 187 189 155 154 123
81 63 46 30 24 26 43 50 63 78 100 116 102 147 157 140 97 112 124 97 89 87
135 102 76 42 26 23 36 66 72 80 106 112 113 124 130 149 112 74 58 70 85 89
212 160 101 98 66 28 55 65 84 94 100 118 127 142 142 153 145 137 138 122 95 75
-15 33 132 169 110 118 130 117 124 241 269 276 206 250 88 174 201 196 233 342 299 285
51 17 29 50 102 128 146 321 421 449 403 371 312 242 191 93 134 290 430 416 389 370

GFSNIL_con_3kmhel_108.txt.gz
Helicity
120 131 120 144 166 158 176 164 180 172 138 159 195 206 206 179 34 151 289 337 153 74
108 118 109 115 131 128 136 122 96 135 138 134 185 250 283 268 202 286 288 317 229 142
102 89 103 117 99 114 112 76 58 91 131 148 179 247 316 292 297 328 310 310 216 247
86 76 104 89 84 113 89 52 39 57 115 148 169 189 226 302 451 386 317 357 396 288
91 87 98 79 82 103 72 43 35 63 47 59 126 142 231 213 289 247 305 322 456 315
117 97 81 66 91 83 66 31 36 47 51 41 74 118 163 190 240 282 308 315 352 305
123 84 70 63 88 59 66 30 34 32 57 53 60 72 107 145 205 226 299 310 315 382
103 82 62 64 69 49 45 36 27 25 34 32 42 66 91 132 109 114 116 162 179 167
101 89 87 76 65 59 39 29 39 28 24 26 14 55 95 116 97 100 87 59 78 37
74 82 94 87 71 58 39 35 39 37 40 48 52 95 109 128 137 158 131 103 112 111
92 84 91 83 69 56 47 42 42 46 47 39 46 98 114 122 131 188 197 198 180 177
276 212 124 99 75 53 44 34 33 34 53 63 62 59 86 113 64 39 94 104 104 127
268 251 231 194 127 55 33 70 108 161 192 211 159 179 58 80 85 65 80 168 224 219
183 215 191 175 184 141 159 272 346 347 321 300 269 192 153 74 120 193 281 280 279 253

GFSNIL_con_3kmhel_114.txt.gz
Helicity
191 174 102 47 117 255 219 185 193 242 284 308 317 278 239 235 189 196 187 239 329 378
263 179 96 59 154 280 192 138 170 223 219 306 269 247 218 203 147 200 198 245 288 326
225 136 80 78 176 199 160 150 206 199 221 283 242 233 220 186 149 160 188 238 287 356
211 121 92 94 171 250 179 163 202 163 175 222 213 209 191 181 166 147 163 201 256 238
207 152 107 129 185 275 183 146 145 147 172 201 219 220 194 181 185 166 169 160 176 220
181 173 140 159 239 260 142 105 108 135 141 150 162 194 171 156 170 170 181 195 232 257
161 149 123 166 221 177 129 98 123 170 151 153 144 170 142 140 157 144 169 215 207 256
128 120 124 205 222 126 139 139 128 144 133 125 110 101 89 78 106 97 109 127 210 240
106 150 174 209 177 116 149 150 115 102 103 85 74 64 74 77 92 88 104 112 128 151
112 114 172 199 169 164 157 150 131 106 90 77 79 61 27 51 60 77 84 112 110 111
144 129 143 188 162 180 158 143 127 106 102 95 129 68 47 25 45 49 51 65 82 100
337 123 192 158 170 161 154 153 241 267 275 212 218 168 56 43 41 62 86 109 131 84
404 395 365 306 270 261 274 330 327 365 364 354 260 266 149 57 79 142 172 193 185 210
406 508 439 399 378 335 319 360 388 395 395 355 302 248 187 114 143 174 200 205 206 187

GFSNIL_con_3kmhel_117.txt.gz
Helicity
125 206 258 221 207 172 153 138 207 264 259 261 269 262 267 291 284 240 203 169 170 215
53 133 192 222 176 175 133 177 222 274 232 227 254 260 258 270 256 220 179 145 198 183
85 130 140 226 203 169 144 229 219 238 224 220 236 251 260 252 211 172 165 136 177 178
81 104 123 221 184 182 180 225 234 231 213 218 240 248 263 231 200 154 156 149 163 145
97 101 158 192 175 181 199 272 238 178 169 172 204 226 236 248 204 148 137 165 135 143
70 81 162 148 137 159 258 329 243 154 121 168 181 200 203 196 176 143 151 140 161 160
37 76 125 134 141 131 302 273 219 111 136 158 173 165 177 179 184 170 139 123 128 200
26 61 130 124 133 138 236 277 205 144 165 164 152 143 145 157 159 179 159 120 120 127
44 31 109 114 102 155 266 319 260 188 181 156 128 97 99 110 107 127 97 93 108 134
177 84 103 111 128 155 269 268 233 187 166 136 106 82 76 95 96 107 94 95 113 86
177 172 136 149 157 205 261 248 187 183 168 164 167 87 72 72 83 90 68 62 86 95
150 197 96 133 187 256 287 303 298 265 256 210 188 116 64 71 66 93 97 108 107 57
97 234 330 200 210 272 403 436 424 441 423 328 255 191 63 66 126 166 165 171 151 161
161 180 375 524 419 395 444 499 488 533 485 440 388 300 145 125 158 187 216 197 184 171

GFSNIL_con_3kmhel_120.txt.gz
Helicity
137 173 179 149 199 263 259 244 238 211 232 267 300 260 234 249 219 235 281 301 245 204
100 106 70 114 116 174 216 213 204 216 215 258 287 245 222 233 227 248 261 246 211 177
72 48 74 92 134 135 179 209 199 207 241 230 264 258 228 231 220 239 256 200 202 126
45 46 51 90 105 145 151 211 220 210 225 222 216 239 233 228 233 219 232 194 176 121
44 46 50 84 78 119 159 208 206 202 224 224 216 238 225 223 217 218 212 174 142 122
46 45 67 90 134 117 169 207 193 214 251 260 211 207 194 204 221 210 176 164 140 107
30 36 56 68 153 120 171 183 230 220 258 193 199 141 183 205 214 186 164 151 117 120
29 53 71 57 120 131 157 156 204 249 241 223 188 166 184 188 189 169 147 123 106 117
11 64 84 75 73 118 135 154 198 242 223 193 191 138 156 177 177 171 149 137 118 113
38 93 131 93 60 106 110 141 195 265 246 170 187 128 136 157 167 156 140 122 96 135
73 123 151 99 52 94 126 125 202 188 212 230 222 136 134 136 156 143 125 100 82 73
88 137 138 41 115 83 175 195 239 327 294 283 241 151 139 157 151 156 175 158 155 110
76 98 67 108 122 63 228 377 476 464 474 386 299 218 124 166 195 219 196 174 145 168
60 102 114 73 250 326 549 553 575 571 529 439 391 263 126 157 178 202 212 189 172 151

GFSNIL_con_3kmhel_123.txt.gz
Helicity
181 179 191 192 196 163 214 232 236 247 239 240 249 241 228 268 264 290 279 253 264 271
192 179 155 155 155 129 167 187 206 221 228 246 227 195 222 262 262 261 252 250 243 258
47 73 109 125 108 146 148 135 186 212 243 239 201 201 220 243 258 245 242 240 230 219
9 21 69 87 97 116 131 116 136 201 239 233 201 212 241 218 263 235 241 232 220 197
139 106 95 86 94 104 117 103 120 170 216 212 183 202 221 207 250 244 265 234 201 207
87 76 87 74 81 114 121 101 120 154 200 221 183 198 209 217 249 254 247 213 207 227
103 80 65 62 77 101 119 154 144 139 189 215 187 193 241 242 244 241 209 198 194 225
88 76 55 50 63 87 117 140 133 149 186 175 187 243 239 206 229 190 207 205 216 213
59 65 61 65 73 78 90 82 90 117 131 163 203 202 204 215 198 170 196 201 195 189
58 56 76 91 92 104 105 83 110 106 149 187 209 193 189 178 199 173 182 182 196 193
54 76 88 116 134 148 133 118 123 130 108 196 200 190 137 167 204 174 173 192 188 193
41 74 70 122 163 185 125 35 123 118 154 127 175 130 162 184 205 204 229 237 230 187
-8 2 37 104 188 135 119 80 263 307 310 246 258 222 199 246 263 286 291 276 245 256
-7 -23 -5 60 133 82 92 246 382 416 343 565 371 271 218 261 254 273 276 241 224 220